一网星座-0389星 (ONEWEB-0389 )

导读

ONEWEB-0389是英国OneWeb公司的低轨通信卫星,于北京时间2021年12月27日在哈萨克拜科努尔发射场,由俄罗斯联盟-2.1b火箭发射入轨,属于OneWeb第12批发射的36颗卫星之一。该卫星运行在距地1200公里轨道,单颗质量不足150公斤,依托离子推进调整轨道,是OneWeb全球低轨卫星互联网星座的组成部分,助力实现全球高速低时延网络覆盖。

Basic Information
目录编号:
50469
目录名称:
ONEWEB-0389
国际标识:
2021-132A
轨道中心:
EARTH
卫星名称:
一网星座-0389星
卫星全名:
一网星座-0389星 (ONEWEB-0389 )
卫星状态:
在轨 (已飞行1720 天)
发射日期:
2021-12-27 UTC
国别 :
英国 (GB)
星等 :
--
This satellite is enrolled in the Space Conjunction Data Service (SCDS) and the current flight risk assessment level is: No High Risk
Orbit Information
数据来源 国际轨道数据 AOE轨道数据
星历时间 2026-09-12T00:33:39+0800
13小时前
查看轨道信息
2026-09-07T02:00:00+0800
5天前
查看轨道信息
半长轴 7571.849km 7571.848km
偏心率 0.0002124 0.0002013
轨道倾角 87.921° 87.920°
近地点辐角 103.908° 99.009°
升交点赤经 348.688° 349.667°
平近点角 256.228° 241.309°
近地点 1192.103km 1192.186km
远地点 1195.321km 1195.236km
周期 109.286分钟 109.285分钟
每日圈数 13.176494 13.176498
Detailed Information
平衡模式:
三轴稳定
覆盖范围:
全球
运营商:
一网卫星公司
运营商所在国:
英国
制造商(研发单位):
一网卫星公司
制造商所在国:
英国
使用方式:
暂无
Satellite Introduction
OneWeb卫星网络由648颗重约125公斤的微型卫星组成,运行在1200公里的轨道上。 每颗卫星都能够提供至少每秒8千兆位的吞吐量,以使用其高吞吐量的Ku频段有效载荷为家庭和移动平台提供互联网接入。该卫星仍在工作。
2D Orbit Map
3D Orbit Map
Orbit Altitude Analysis Chart
Orbit Inclination Analysis Chart
Orbit Comprehensive Analysis Chart
View Comprehensive Chart
Conjunction Data List
Event ID Objects TCA Miss Dist (km) Collision Risk Probability Collision Risk Index (CRI) Action
CDM_260906-031104-531005-046926
2026-09-06T
03:11:26+0000
2.247 km
极远距离
2.120611E-6 低风险 0.42
Miss Distance Evolution Trend with All Objects
Collision Probability Evolution Trend with All Objects